Location: De Har
(53.3413°N, 6.6858°E)
Time: 20:42:23
(UTC+00:00)

Iridium 4 Rocket - Pass Details

Date: 22 April 2026
Orbit: 581 x 884 km, 86.9° (Epoch: 21 May)

Event Time Altitude Azimuth Distance (km) Brightness Sun altitude
Exits shadow 02:02:58 17° 169° (S) 1,689 4.9 -17.0°
Maximum altitude 02:06:32 69° 89° (E) 774 3.6 -16.7°
Drops below altitude 10° 02:11:39 10° 8° (N) 2,320 6.9 -16.2°
Sets 02:14:08 0° 6° (N) 3,300 7.7 -15.9°
